BEIDOU-3 M8 (C28)

Last updated on Thu Nov 21 2024 00:03:16 GMT+0000 (Coordinated Universal Time)

1 43108U 18003B 24325.29272122 -.00000078 00000+0 00000+0 0 9995 2 43108 54.8126 322.2273 0005232 265.2978 94.6490 1.86230899 46677
UTC large
Height (km)
Speed (km/s)
/
Latitude / Longitude
Inclination (degrees)
Orbital Period (minutes)
Azimuth
Elevation
Range (km)
Doppler Factor

Next 0 passes for location: London (51.5072 / 0.1276)

Sorry there are no passes over London.